TimeGMT,TemperatureF,Dew PointF,Humidity,Sea Level PressureIn,VisibilityMPH,Wind Direction,Wind SpeedMPH,Gust SpeedMPH,PrecipitationIn,Events,Conditions,WindDirDegrees,DateUTC
12:00 AM,42.8,41.0,93,30.33,6.2,WSW,8.1,-,N/A,,Mostly Cloudy,250,2012-12-09 00:00:00
12:30 AM,41.0,41.0,100,30.33,6.2,SW,5.8,-,N/A,,Mostly Cloudy,220,2012-12-09 00:30:00
1:00 AM,41.0,41.0,100,30.33,6.2,WSW,6.9,-,N/A,,Mostly Cloudy,240,2012-12-09 01:00:00
1:30 AM,41.0,41.0,100,30.33,6.2,WSW,5.8,-,N/A,,Mostly Cloudy,250,2012-12-09 01:30:00
2:00 AM,41.0,41.0,100,30.33,6.2,West,6.9,-,N/A,,Mostly Cloudy,260,2012-12-09 02:00:00
2:30 AM,42.8,41.0,93,30.33,6.2,WNW,5.8,-,N/A,,Mostly Cloudy,290,2012-12-09 02:30:00
3:00 AM,42.8,41.0,93,30.33,6.2,WSW,5.8,-,N/A,,Mostly Cloudy,250,2012-12-09 03:00:00
3:30 AM,41.0,41.0,100,30.30,6.2,SW,3.5,-,N/A,,Mostly Cloudy,230,2012-12-09 03:30:00
4:00 AM,42.8,41.0,93,30.30,6.2,WSW,6.9,-,N/A,,Mostly Cloudy,240,2012-12-09 04:00:00
4:30 AM,41.0,41.0,100,30.30,6.2,SW,5.8,-,N/A,,Mostly Cloudy,220,2012-12-09 04:30:00
5:00 AM,42.8,41.0,93,30.30,6.2,SW,5.8,-,N/A,,Mostly Cloudy,230,2012-12-09 05:00:00
5:30 AM,42.8,41.0,93,30.27,6.2,WSW,6.9,-,N/A,,Mostly Cloudy,250,2012-12-09 05:30:00
6:00 AM,43,41,92,30.30,19,West,8.9,,,,Mostly Cloudy,260,2012-12-09 06:00:00
6:00 AM,42.8,41.0,93,30.27,6.2,West,8.1,-,N/A,,Mostly Cloudy,260,2012-12-09 06:00:00
6:30 AM,42.8,41.0,93,30.27,6.2,WSW,5.8,-,N/A,,Mostly Cloudy,240,2012-12-09 06:30:00
7:00 AM,42.8,42.8,100,30.27,6.2,West,6.9,-,N/A,,Light Drizzle,260,2012-12-09 07:00:00
7:30 AM,42.8,42.8,100,30.27,6.2,West,6.9,-,N/A,,Mostly Cloudy,260,2012-12-09 07:30:00
8:00 AM,42.8,42.8,100,30.27,6.2,West,8.1,-,N/A,,Mostly Cloudy,260,2012-12-09 08:00:00
8:30 AM,42.8,42.8,100,30.27,6.2,WSW,5.8,-,N/A,,Mostly Cloudy,240,2012-12-09 08:30:00
9:00 AM,42.8,42.8,100,30.27,6.2,SW,6.9,-,N/A,,Mostly Cloudy,230,2012-12-09 09:00:00
9:30 AM,42.8,42.8,100,30.27,6.2,WSW,6.9,-,N/A,,Mostly Cloudy,240,2012-12-09 09:30:00
10:00 AM,44.6,42.8,93,30.27,6.2,SW,6.9,-,N/A,,Mostly Cloudy,230,2012-12-09 10:00:00
10:30 AM,44.6,42.8,93,30.27,3.7,WSW,126.6,-,N/A,,Mostly Cloudy,250,2012-12-09 10:30:00
11:00 AM,44.6,44.6,100,30.27,6.2,WSW,8.1,-,N/A,,Mostly Cloudy,240,2012-12-09 11:00:00
11:30 AM,46.4,44.6,93,30.27,6.2,WSW,10.4,-,N/A,,Mostly Cloudy,250,2012-12-09 11:30:00
12:00 PM,46,44,90,30.28,19,WSW,8.9,,,,Partly Cloudy,250,2012-12-09 12:00:00
12:00 PM,46.4,44.6,93,30.24,6.2,WSW,8.1,-,N/A,,Mostly Cloudy,250,2012-12-09 12:00:00
12:30 PM,46.4,44.6,93,30.24,6.2,West,11.5,-,N/A,,Mostly Cloudy,260,2012-12-09 12:30:00
1:00 PM,46.4,44.6,93,30.21,6.2,WSW,11.5,-,N/A,,Mostly Cloudy,250,2012-12-09 13:00:00
1:30 PM,46.4,44.6,93,30.21,6.2,West,10.4,-,N/A,,Mostly Cloudy,260,2012-12-09 13:30:00
2:00 PM,46.4,44.6,93,30.21,6.2,West,9.2,-,N/A,,Mostly Cloudy,270,2012-12-09 14:00:00
2:30 PM,46.4,44.6,93,30.21,6.2,West,10.4,-,N/A,,Mostly Cloudy,270,2012-12-09 14:30:00
3:00 PM,46.4,44.6,93,30.21,6.2,West,10.4,-,N/A,,Mostly Cloudy,280,2012-12-09 15:00:00
3:30 PM,46.4,42.8,87,30.21,6.2,West,10.4,-,N/A,,Mostly Cloudy,280,2012-12-09 15:30:00
4:00 PM,46.4,42.8,87,30.21,6.2,West,10.4,-,N/A,,Mostly Cloudy,280,2012-12-09 16:00:00
4:30 PM,46.4,42.8,87,30.21,6.2,West,6.9,-,N/A,,Mostly Cloudy,280,2012-12-09 16:30:00
5:00 PM,44.6,42.8,93,30.21,6.2,WNW,6.9,-,N/A,,Mostly Cloudy,290,2012-12-09 17:00:00
5:30 PM,44.6,42.8,93,30.21,6.2,West,5.8,-,N/A,,Mostly Cloudy,280,2012-12-09 17:30:00
6:00 PM,43,41,90,30.24,19,West,6.7,,,,Scattered Clouds,270,2012-12-09 18:00:00
6:00 PM,42.8,41.0,93,30.21,6.2,West,5.8,-,N/A,,Mostly Cloudy,270,2012-12-09 18:00:00
6:30 PM,44.6,42.8,93,30.21,6.2,WNW,8.1,-,N/A,,Mostly Cloudy,300,2012-12-09 18:30:00
7:00 PM,44.6,41.0,87,30.21,6.2,WNW,6.9,-,N/A,,Mostly Cloudy,300,2012-12-09 19:00:00
7:30 PM,44.6,42.8,93,30.21,6.2,WNW,8.1,-,N/A,,Mostly Cloudy,300,2012-12-09 19:30:00
8:00 PM,44.6,42.8,93,30.21,6.2,West,6.9,-,N/A,,Mostly Cloudy,280,2012-12-09 20:00:00
8:30 PM,44.6,41.0,87,30.21,6.2,NW,9.2,-,N/A,,Mostly Cloudy,320,2012-12-09 20:30:00
9:00 PM,44.6,41.0,87,30.21,6.2,NNW,8.1,-,N/A,,Mostly Cloudy,340,2012-12-09 21:00:00
9:30 PM,42.8,41.0,93,30.21,6.2,North,6.9,-,N/A,,Mostly Cloudy,350,2012-12-09 21:30:00
10:00 PM,42.8,41.0,93,30.21,6.2,North,5.8,-,N/A,,Mostly Cloudy,350,2012-12-09 22:00:00
10:30 PM,42.8,42.8,100,30.21,6.2,NNE,8.1,-,N/A,,Mostly Cloudy,30,2012-12-09 22:30:00
11:00 PM,42.8,41.0,93,30.21,6.2,NNE,6.9,-,N/A,,Mostly Cloudy,30,2012-12-09 23:00:00
11:30 PM,42.8,41.0,93,30.24,6.2,NNE,8.1,-,N/A,,Mostly Cloudy,30,2012-12-09 23:30:00